Weather History for K0VG - October, 2013

Change the Weather History Date:

Saturday, October 26, 2013

  Actual Average (KLOZ) Record (KLOZ)
Temperature  
Mean Temperature 36 °F 54 °F  
Max Temperature 53 °F 66 °F 83 °F (1991)
Min Temperature 19 °F 42 °F 18 °F (1962)
Degree Days  
Heating Degree Days 29 11  
Month to date heating degree days 201  
Since 1 July heating degree days 248  
Cooling Degree Days 0 0  
Month to date cooling degree days 17  
Moisture  
Dew Point 26 °F    
Average Humidity 66    
Maximum Humidity 100    
Minimum Humidity 35    
Precipitation  
Precipitation 0.00 in 0.10 in 1.30 in (1981)
Month to date precipitation 2.49  
Sea Level Pressure  
Sea Level Pressure 30.23 in    
Wind  
Wind Speed 2 mph (SW)    
Max Wind Speed 15 mph    
Max Gust Speed 18 mph    
Visibility 10 miles    
Events      
T = Trace of Precipitation, MM = Missing Value Source: NWS Daily Summary

Daily Weather History Graph

Daily Weather History Graph

Search for Another Location

Airport or City:

Trip Planner

Search our weather history database for the weather conditions in past years. The results will help you decide how hot, cold, wet, or windy it might be!

Date:

Astronomy

Oct. 26, 2013 Rise Set
Actual Time 7:50 AM EDT 6:42 PM EDT
Civil Twilight 7:24 AM EDT 7:08 PM EDT
Nautical Twilight 6:53 AM EDT 7:39 PM EDT
Astronomical Twilight 6:23 AM EDT 8:09 PM EDT
Moon 12:04 AM EDT (10/26) 2:04 PM EDT (10/26)
Length of Visible Light 11h 44m
Length of Day
10h 51m
Waning Gibbous, 53% of the Moon is Illuminated
Oct 26
Waning Gibbous
Oct 26
Last Quarter
Nov 3
New
Nov 10
First Quarter
Nov 17
Full

Hourly Weather History & Observations

Time (EDT) Temp. Windchill Dew Point Humidity Pressure Visibility Wind Dir Wind Speed Gust Speed Precip Events Conditions
12:15 AM 26.6 °F - 24.8 °F 93% 30.37 in 10.0 mi Calm Calm - N/A   Unknown
12:35 AM 26.6 °F - 26.6 °F 100% 30.36 in 10.0 mi Calm Calm - N/A   Clear
12:55 AM 26.6 °F - 26.6 °F 100% 30.35 in 10.0 mi Calm Calm - N/A   Unknown
1:15 AM 24.8 °F - 24.8 °F 100% 30.35 in 10.0 mi Calm Calm - N/A   Unknown
1:35 AM 24.8 °F - 24.8 °F 100% 30.34 in 10.0 mi Calm Calm - N/A   Unknown
1:55 AM 24.8 °F - 24.8 °F 100% 30.34 in 10.0 mi Calm Calm - N/A   Unknown
2:15 AM 23.0 °F - 23.0 °F 100% 30.34 in 10.0 mi Calm Calm - N/A   Unknown
2:35 AM 23.0 °F - 23.0 °F 100% 30.33 in 10.0 mi Calm Calm - N/A   Unknown
2:55 AM 24.8 °F - 24.8 °F 100% 30.33 in 10.0 mi Calm Calm - N/A   Unknown
3:15 AM 24.8 °F - 24.8 °F 100% 30.33 in 10.0 mi Calm Calm - N/A   Unknown
3:35 AM 23.0 °F - 23.0 °F 100% 30.32 in 10.0 mi Calm Calm - N/A   Unknown
3:55 AM 23.0 °F - 21.2 °F 93% 30.32 in 10.0 mi Calm Calm - N/A   Unknown
4:15 AM 23.0 °F - 23.0 °F 100% 30.31 in 10.0 mi Calm Calm - N/A   Unknown
4:35 AM 23.0 °F - 21.2 °F 93% 30.31 in 10.0 mi Calm Calm - N/A   Unknown
4:55 AM 23.0 °F - 23.0 °F 100% 30.30 in 10.0 mi Calm Calm - N/A   Unknown
5:15 AM 23.0 °F - 23.0 °F 100% 30.30 in 10.0 mi Calm Calm - N/A   Unknown
5:35 AM 23.0 °F - 21.2 °F 93% 30.31 in 10.0 mi Calm Calm - N/A   Unknown
5:55 AM 23.0 °F - 19.4 °F 86% 30.31 in 10.0 mi Calm Calm - N/A   Unknown
6:15 AM 21.2 °F - 19.4 °F 93% 30.31 in 10.0 mi Calm Calm - N/A   Unknown
6:35 AM 21.2 °F - 19.4 °F 93% 30.31 in 10.0 mi Calm Calm - N/A   Clear
6:55 AM 19.4 °F - 19.4 °F 100% 30.31 in 10.0 mi Calm Calm - N/A   Clear
7:15 AM 23.0 °F - 19.4 °F 86% 30.31 in 10.0 mi Calm Calm - N/A   Unknown
7:35 AM 21.2 °F - 19.4 °F 93% 30.31 in 10.0 mi Calm Calm - N/A   Unknown
7:55 AM 21.2 °F - 19.4 °F 93% 30.31 in 10.0 mi Calm Calm - N/A   Unknown
8:15 AM 23.0 °F - 19.4 °F 86% 30.31 in 10.0 mi Calm Calm - N/A   Clear
8:35 AM 24.8 °F - 23.0 °F 93% 30.31 in 10.0 mi Calm Calm - N/A   Clear
8:55 AM 26.6 °F - 23.0 °F 86% 30.31 in 10.0 mi Calm Calm - N/A   Clear
9:15 AM 26.6 °F - 24.8 °F 93% 30.31 in 10.0 mi Calm Calm - N/A   Clear
9:35 AM 28.4 °F - 26.6 °F 93% 30.31 in 10.0 mi Calm Calm - N/A   Clear
9:55 AM 32.0 °F - 26.6 °F 80% 30.31 in 10.0 mi Calm Calm - N/A   Clear
10:15 AM 32.0 °F - 26.6 °F 80% 30.31 in 10.0 mi Calm Calm - N/A   Clear
10:35 AM 35.6 °F - 28.4 °F 75% 30.30 in 10.0 mi Calm Calm - N/A   Clear
10:55 AM 37.4 °F - 28.4 °F 70% 30.30 in 10.0 mi Calm Calm - N/A   Clear
11:15 AM 41.0 °F - 26.6 °F 57% 30.28 in 10.0 mi Calm Calm - N/A   Clear
11:35 AM 41.0 °F 37.1 °F 28.4 °F 61% 30.28 in 10.0 mi SW 5.8 mph - N/A   Clear
11:55 AM 44.6 °F 38.8 °F 28.4 °F 53% 30.26 in 10.0 mi SW 11.5 mph - N/A   Clear
12:15 PM 46.4 °F 40.1 °F 28.4 °F 50% 30.25 in 10.0 mi SW 15.0 mph - N/A   Clear
12:35 PM 48.2 °F - 28.4 °F 46% 30.23 in 10.0 mi SW 10.4 mph - N/A   Clear
12:55 PM 48.2 °F - 26.6 °F 43% 30.22 in 10.0 mi SW 11.5 mph 18.4 mph N/A   Clear
1:15 PM 50.0 °F - 26.6 °F 40% 30.21 in 10.0 mi SW 6.9 mph - N/A   Clear
1:35 PM 50.0 °F - 26.6 °F 40% 30.19 in 10.0 mi SW 9.2 mph - N/A   Clear
1:55 PM 51.8 °F - 26.6 °F 38% 30.18 in 10.0 mi West 6.9 mph - N/A   Clear
2:15 PM 51.8 °F - 26.6 °F 38% 30.17 in 10.0 mi SW 11.5 mph - N/A   Clear
2:35 PM 51.8 °F - 26.6 °F 38% 30.17 in 10.0 mi SW 11.5 mph - N/A   Clear
2:55 PM 53.6 °F - 26.6 °F 35% 30.16 in 10.0 mi SSW 8.1 mph - N/A   Scattered Clouds
3:15 PM 53.6 °F - 26.6 °F 35% 30.15 in 10.0 mi SW 10.4 mph - N/A   Mostly Cloudy
3:35 PM 53.6 °F - 26.6 °F 35% 30.15 in 10.0 mi SW 9.2 mph - N/A   Overcast
3:55 PM 53.6 °F - 26.6 °F 35% 30.15 in 10.0 mi SW 11.5 mph - N/A   Overcast
4:15 PM 53.6 °F - 26.6 °F 35% 30.13 in 10.0 mi SSW 10.4 mph - N/A   Overcast
4:35 PM 53.6 °F - 26.6 °F 35% 30.13 in 10.0 mi SSW 6.9 mph - N/A   Overcast
4:55 PM 53.6 °F - 26.6 °F 35% 30.13 in 10.0 mi SW 8.1 mph - N/A   Overcast
5:15 PM 53.6 °F - 26.6 °F 35% 30.13 in 10.0 mi SW 6.9 mph - N/A   Overcast
5:35 PM 53.6 °F - 26.6 °F 35% 30.13 in 10.0 mi SW 8.1 mph - N/A   Overcast
5:55 PM 53.6 °F - 26.6 °F 35% 30.12 in 10.0 mi Calm Calm - N/A   Overcast
6:15 PM 51.8 °F - 26.6 °F 38% 30.11 in 10.0 mi Calm Calm - N/A   Overcast
6:35 PM 51.8 °F - 28.4 °F 41% 30.11 in 10.0 mi SSW 4.6 mph - N/A   Overcast
6:55 PM 51.8 °F - 26.6 °F 38% 30.12 in 10.0 mi SW 3.5 mph - N/A   Unknown
7:15 PM 51.8 °F - 26.6 °F 38% 30.12 in 10.0 mi SW 6.9 mph - N/A   Unknown
7:35 PM 50.0 °F - 26.6 °F 40% 30.11 in 10.0 mi SW 6.9 mph - N/A   Overcast
7:55 PM 50.0 °F - 26.6 °F 40% 30.11 in 10.0 mi SW 9.2 mph - N/A   Overcast
8:15 PM 50.0 °F - 26.6 °F 40% 30.11 in 10.0 mi SW 9.2 mph - N/A   Overcast
8:35 PM 50.0 °F - 28.4 °F 43% 30.11 in 10.0 mi Calm Calm - N/A   Overcast
8:55 PM 50.0 °F - 28.4 °F 43% 30.11 in 10.0 mi Calm Calm - N/A   Overcast
9:15 PM 50.0 °F - 28.4 °F 43% 30.11 in 10.0 mi Calm Calm - N/A   Overcast
9:35 PM 50.0 °F - 28.4 °F 43% 30.12 in 10.0 mi Calm Calm - N/A   Unknown
9:55 PM 50.0 °F - 30.2 °F 47% 30.13 in 10.0 mi Calm Calm - N/A   Unknown
10:15 PM 50.0 °F - 30.2 °F 47% 30.13 in 10.0 mi WSW 9.2 mph - N/A   Unknown
10:35 PM 50.0 °F - 32.0 °F 50% 30.14 in 10.0 mi WSW 4.6 mph - N/A   Overcast
10:55 PM 50.0 °F - 32.0 °F 50% 30.14 in 10.0 mi Calm Calm - N/A   Overcast
11:15 PM 50.0 °F - 32.0 °F 50% 30.15 in 10.0 mi Calm Calm - N/A   Overcast
11:35 PM 50.0 °F - 32.0 °F 50% 30.15 in 10.0 mi Calm Calm - N/A   Overcast
11:55 PM 50.0 °F - 32.0 °F 50% 30.15 in 10.0 mi Calm Calm - N/A   Unknown